カタログに戻る

STARLINK-32891

運用中通信VLEO
NORAD 62927·PAYLOAD·🇺🇸 United States

打ち上げ Feb 8, 2025 から Cape Canaveral Space Force Station

Loading…

次のパス (今後24時間)

TLE

最新Source: CelesTrak SupGP

元期: Sep 15, 2026, 03:38 UTC

1 62927C 25027W   26258.15187500  .00058388  00000+0  21153-2 0  2585
2 62927  43.0010 139.1302 0001681 276.6855 142.3906 15.27541047    12

AllMySatでSTARLINK-32891をリアルタイム追跡

Download on the App Store